Skip Page Navigation
NASA JPL Caltech
NASA Logo - Jet Propulsion Laboratory + View the NASA Portal
+ Near-Earth Object (NEO) Program
Search JPL
JPL Home Earth Solar System Stars & Galaxies Technology
JPL Solar System Dynamics
BODIES ORBITS EPHEMERIDES TOOLS PHYSICAL DATA DISCOVERY FAQ SITE MAP
JPL Small-Body Database Browser
Search: [ help ]  
23494 (1991 SE2)
Classification: Main-belt Asteroid          SPK-ID: 2023494
Ephemeris | Orbit Diagram | Orbital Elements | Physical Parameters | Discovery Circumstances | Close-Approach Data ]

[ show orbit diagram ]
Orbital Elements at Epoch 2457000.5 (2014-Dec-09.0) TDB
Reference: JPL 11 (heliocentric ecliptic J2000)
 Element Value Uncertainty (1-sigma)   Units 
e .2289949879721913 4.788e-08  
a 2.362576279938335 1.2768e-08 AU
q 1.821558153130472 1.1261e-07 AU
i 2.41726641442851 5.594e-06 deg
node 168.1485099139406 0.00012547 deg
peri 145.2874723515108 0.00012612 deg
M 166.6727847602303 1.5398e-05 deg
tp 2456386.399604887626
(2013-Apr-03.89960489)
5.4491e-05 JED
period 1326.408162907262
3.63
1.0753e-05
2.944e-08
d
yr
n .2714096686580554 2.2002e-09 deg/d
Q 2.903594406746199 1.5692e-08 AU
  Orbit Determination Parameters
   # obs. used (total)      1012  
   data-arc span      22659 days (62.04 yr)  
   first obs. used      1953-01-09  
   last obs. used      2015-01-23  
   planetary ephem.      DE431  
   SB-pert. ephem.      SB431-BIG16  
   condition code      0  
   fit RMS      .50692  
   data source      ORB  
   producer      Otto Matic  
   solution date      2015-Feb-04 14:04:59  

Additional Information
 Earth MOID = .80919 AU 
 T_jup = 3.513 
[ show covariance matrix ]

Ephemeris | Orbit Diagram | Orbital Elements | Physical Parameters | Discovery Circumstances | Close-Approach Data ]

Physical Parameter Table
Parameter Symbol Value Units Sigma Reference Notes
absolute magnitude H 14.4 mag n/a MPO266078  

23494 (1991 SE2)          Discovered 1991-Sep-16 by Holt, H. E. at Palomar (675)
Reference: 20010408/Numbers.arcLast Updated: 2004-04-19

[ show close-approach data ]
Alternate Designations
 1991 SE2 = 1994 GM 
Ephemeris | Orbit Diagram | Orbital Elements | Physical Parameters | Discovery Circumstances | Close-Approach Data ]
ABOUT SSD CREDITS/AWARDS PRIVACY/COPYRIGHT GLOSSARY LINKS
FirstGov 2015-Feb-28 12:24 UT
(server date/time)  
NASA Home Page
Site Manager:   Ryan S. Park
Webmaster  Alan B. Chamberlin